Simultaneous Nadir Overpasses (SNOs) Predictions

Prediction of SNOs between GOES-15 and TERRA Satellite Orbit:

Table of predicted SNOs for the next 14.0 days since TLE Epoch: 9/2/2023
Index Date Time (GOES-15) GOES-15 Lat,Lon TERRA Lat,Lon Distance(km) Time Diff (sec)
1 09/03/2023 13:19:07 0.23, 126.03 1.10, 130.29 483.74 80
2 09/04/2023 01:42:00 -0.26, 125.40 -0.24, 125.35 5.42 80
3 09/06/2023 13:43:22 0.26, 122.87 0.52, 124.28 159.31 80
4 09/07/2023 02:06:15 -0.29, 122.24 0.32, 119.34 329.48 80
5 09/09/2023 01:47:16 -0.26, 120.15 -0.90, 123.22 349.44 80
6 09/09/2023 14:10:17 0.28, 119.69 -0.01, 118.26 162.93 80
7 09/12/2023 02:11:29 -0.28, 116.95 -0.34, 117.21 29.04 80
8 09/12/2023 14:34:30 0.31, 116.49 -0.57, 112.25 482.56 80
9 09/14/2023 14:15:30 0.29, 114.38 0.63, 116.14 199.31 80
10 09/15/2023 02:38:22 -0.31, 113.74 0.25, 111.21 288.37 80
